Back to catalog

STARLINK-32009

AliveCommunicationsVLEO
NORAD 60104·PAYLOAD·🇺🇸 United States

Launched Jun 23, 2024 from Cape Canaveral Space Force Station

Loading…

Next Passes (next 24 hours)

TLE

FreshSource: CelesTrak SupGP

Epoch: Sep 14, 2026, 14:17 UTC

1 60104C 24117P   26257.59562500 -.00033430  00000+0 -98798-3 0  2575
2 60104  53.1584 237.3015 0001352  85.3096 214.4100 15.34397954    15

Track STARLINK-32009 in real time with AllMySat

Download on the App Store